Weather in Zelenyy Bor

Russia / Tambov Oblast     53°40′52″N   41°51′30″E
temp.,
°C
wind,
m/s
gust,
m/s
humid.,
%
clouds,
%
prec.,
mm/h
press.,
hPa
HPBL,
m
7 march, sun
sun700:00−13w349211 0.0 101577
03:00−14w47936 0.0 1015104
06:00−14sw47930 0.0 101496
09:00−9sw7138848 0.0 1011478
12:00−5ssw101586100 0.0 1007906
15:00−4sw111893100 1.3 10021267
18:00−3sw101793100 1.7 9981138
21:00−3sw101793100 2.6 9951009
8 march, mon
mon800:00−3w61286100 1.4 995634
03:00−7w7158283 1.5 998546
06:00−10wsw512880 0.0 1000320
09:00−8wsw5109019 0.0 1001390
12:00−5wsw61088100 0.1 1000842
15:00−4w71083100 0.1 10011092
18:00−6wnw5119292 0.3 1003492
21:00−11w4108961 0.3 1006195
9 march, tue
tue900:00−13nw47930 0.0 1008102
03:00−15nw23950 0.0 101023
06:00−15wnw349667 0.0 101163
09:00−14nw369483 0.0 1013239
12:00−11nw3590100 0.0 1013450
15:00−9nw4587100 0.1 1014730
18:00−12nw3693100 0.1 1015129
21:00−15nnw369598 0.1 1018130
10 march, wed
wed1000:00−19nnw369439 0.0 101991
03:00−22nw359725 0.0 102085
06:00−24nw369875 0.0 1022115
09:00−22nnw479572 0.0 1024262
12:00−18nnw468955 0.0 1025476
15:00−16nw468672 0.0 1026596
18:00−19nw339265 0.0 102627
21:00−22nw239332 0.0 102820
11 march, thu
thu1100:00−23nw22940 0.0 102920
03:00−24wnw22910 0.0 103020
06:00−23w23930 0.0 103021
09:00−19wsw23880 0.0 1030124
12:00−14wsw34770 0.0 1030279
15:00−13sw35810 0.0 1029274
18:00−16ssw368830 0.0 102993
21:00−17ssw478752 0.0 1029131